Starlink 31820

operational
NORAD ID: 59725 Int'l Des: 2024-088 Owner: SPXS Country: US Constellation: starlink
LEOCIRCULAR

关于 Starlink 31820

正在加载描述...

实时位置

正在加载3D地球...

即将过境

高度历史

Altitude vs Time

uPlot chart will show altitude changes over time

两行轨道根数

1 59725U 24088T 26034.16839342 .00005780 00000-0 20717-3 0 9991
2 59725 53.1594 300.4803 0001153 101.1592 258.9538 15.30191981 98391
Epoch: Feb 3, 2026 • Age: 28 hours

当前状态

高度 494.5 km
速度 7.62 km/s
星下点 -53.31°S, 48.49°W
发射日期 May 10, 2024
运行时间 1.7 years
类型 internet

技术详情

分类 Payload
质量 730.00 kg
干质量 700.00 kg
总质量 730.00 kg
长度 0.30 m
直径 4.10 m
跨度 29.00 m
形状 Box + pan
制造商 SPXS
平台类型 Starlink V2M
阶段状态 In Orbit
所有者/国家 SPXS/US

大型星座

Loading constellations...